Theta_e
325 328 330 331 332 334 335 335 335 336 334 330 327 327 326 329 328 329 331 332 332 332 335 331 333 333 333 333 334 331 332 325 329 329 330 333 337 343 338 339 340 341 344
322 325 327 330 331 332 334 334 335 338 335 332 334 332 331 330 331 332 334 334 332 333 333 335 335 339 330 338 333 332 326 325 326 326 327 321 326 332 340 342 343 343 344
317 319 321 324 326 328 331 333 334 336 336 336 333 335 335 336 330 333 332 337 333 334 335 333 335 337 336 327 333 332 330 321 324 334 325 320 318 328 336 344 339 344 343
317 318 318 319 320 321 323 325 328 329 330 332 329 331 326 324 328 329 331 332 333 333 333 334 335 339 332 334 332 327 328 329 322 322 325 334 332 323 321 328 336 341 338
316 316 317 318 319 320 320 321 324 325 327 329 329 325 328 324 325 324 328 335 333 334 328 335 336 336 331 334 337 332 331 326 321 319 320 327 322 331 325 320 324 333 341
315 316 318 318 318 319 319 320 321 324 325 325 326 330 328 325 322 324 322 321 321 323 329 328 336 337 334 334 331 333 331 329 326 322 321 317 316 317 319 319 324 325 330
314 314 315 315 316 317 318 318 319 320 321 320 322 324 328 329 327 324 320 323 318 319 326 334 332 327 333 332 333 333 332 329 326 327 321 320 318 319 318 317 317 318 325
313 313 313 314 314 315 316 316 317 317 318 318 320 324 325 318 320 322 320 318 318 319 325 327 329 331 331 332 333 328 327 331 326 326 326 321 320 319 318 316 315 314 318
312 312 312 313 313 314 315 315 315 315 316 319 322 324 324 323 321 326 327 318 323 318 322 325 326 325 326 329 332 328 328 328 328 329 327 323 321 320 320 318 317 316 313
311 311 311 312 313 313 314 314 314 314 315 316 316 317 321 321 319 316 316 316 316 318 319 320 322 324 324 326 329 326 328 324 324 322 327 325 322 323 320 319 318 319 318
308 310 310 311 311 311 311 312 312 312 313 314 316 318 317 316 316 315 314 314 314 314 314 315 315 316 320 323 325 327 323 320 320 324 321 321 325 320 319 319 318 318 320
309 309 309 309 309 309 310 310 312 311 312 313 313 313 313 312 312 311 312 312 312 313 312 313 312 312 316 320 320 319 314 314 318 318 320 319 319 324 326 319 324 321 325
307 307 307 307 307 309 310 310 311 310 310 311 310 308 310 311 310 312 312 312 311 309 311 311 312 311 311 313 313 314 314 314 315 315 316 318 319 320 319 321 320 320 324
306 306 306 306 307 309 309 309 308 307 309 309 307 307 308 309 309 310 310 309 311 309 310 310 311 311 310 310 308 309 310 310 311 315 315 317 318 319 321 320 323 324 324
305 305 304 306 307 308 308 308 308 308 306 304 304 305 307 307 307 307 308 309 308 309 309 307 308 311 309 308 310 307 307 309 310 311 314 315 318 317 317 317 322 324 327
304 304 306 306 306 306 306 305 305 303 303 302 301 302 303 304 304 305 305 305 305 307 307 304 305 306 308 305 305 307 310 310 310 308 312 312 316 314 312 312 313 315 316
304 305 306 306 306 305 305 302 300 301 301 301 301 301 302 302 302 303 305 304 304 304 303 303 304 303 306 303 302 304 308 308 309 308 309 311 312 314 314 312 310 311 311
305 306 305 306 305 304 300 300 300 300 300 300 300 301 302 302 302 303 303 304 303 303 303 303 304 303 306 303 301 302 307 307 307 309 310 310 311 314 316 315 316 317 320
307 306 306 305 305 300 300 299 299 300 300 300 300 301 302 302 303 302 304 305 304 302 302 304 304 304 306 302 300 302 307 306 307 307 307 308 312 307 305 314 315 320 322
308 306 306 305 300 299 300 299 298 298 298 300 301 302 303 302 304 305 305 305 304 303 303 303 306 305 307 302 300 301 305 305 304 307 311 305 309 304 302 313 315 316 311
306 306 306 300 299 300 299 298 298 298 301 302 302 302 303 305 306 306 305 303 303 303 303 302 304 306 307 307 299 298 306 305 304 305 308 313 303 300 300 302 316 310 309
304 304 300 299 300 300 300 298 298 301 302 303 303 304 305 306 305 305 304 303 302 301 301 302 302 304 305 302 301 298 298 304 306 305 308 310 301 299 299 301 299 301 306
304 303 300 299 299 300 300 298 299 301 302 303 304 304 305 304 304 303 302 299 300 301 301 302 302 302 306 307 300 297 297 298 302 305 306 302 300 298 298 299 300 303 307
301 302 300 299 297 299 300 300 300 302 302 304 304 304 303 304 305 304 300 299 299 298 300 303 304 305 306 305 304 304 302 299 300 302 300 301 302 303 303 304 307 309 308
302 301 299 298 298 299 300 301 301 302 302 304 304 303 304 304 303 303 302 298 298 294 296 301 302 302 305 303 299 302 306 306 303 305 306 305 305 305 307 308 308 308 308
302 300 299 299 298 299 300 302 302 302 303 304 304 305 305 302 301 301 301 294 294 294 291 291 294 300 294 294 295 295 294 295 298 308 307 306 307 307 307 307 308 309 308
Wind_Speed
10 12 12 12 10 8 6 5 5 5 6 5 4 4 6 4 4 4 3 2 4 5 4 7 5 4 6 3 6 7 8 8 9 8 10 9 10 11 10 8 10 8 10
10 10 11 11 10 9 9 8 9 8 8 7 6 8 9 5 4 5 2 4 4 5 6 6 7 7 7 7 4 6 7 7 8 6 8 11 9 9 8 7 7 8 6
8 8 9 9 9 8 8 7 6 6 7 8 8 6 5 6 7 4 4 3 4 6 8 10 8 8 8 9 1 7 6 7 6 8 7 8 9 12 4 3 4 3 4
5 6 8 9 8 8 6 5 6 7 6 4 4 5 7 8 9 9 8 6 7 9 11 11 12 9 9 11 7 8 6 6 7 6 6 6 5 7 9 9 5 6 3
6 7 8 7 8 7 8 9 8 8 8 8 8 9 10 9 9 8 9 9 10 13 14 13 12 11 10 11 11 8 7 8 7 6 6 6 7 8 8 10 10 2 5
10 6 9 10 10 11 12 11 12 12 12 12 12 11 12 11 11 11 11 11 11 10 8 13 10 10 11 11 12 9 9 8 6 6 5 7 7 8 8 9 9 9 4
11 11 16 16 15 14 14 13 15 14 14 14 13 14 13 13 13 13 13 12 11 11 11 9 9 7 10 12 12 10 9 9 8 6 7 6 7 7 8 9 10 10 7
12 16 18 17 16 16 16 17 17 16 16 16 15 12 14 12 13 13 12 11 11 12 15 14 13 13 13 12 13 9 10 10 10 9 7 7 6 7 7 8 9 11 10
15 16 18 20 18 18 17 17 18 17 16 17 13 13 13 14 14 15 12 12 11 12 14 15 14 13 13 13 12 12 12 11 8 8 9 8 7 6 7 8 9 10 11
19 18 16 17 16 17 18 18 18 18 17 18 17 14 15 15 11 10 11 12 12 15 15 16 16 15 16 16 15 13 14 12 11 10 9 8 8 8 8 8 10 10 10
17 20 17 19 19 18 19 19 19 21 20 18 17 16 14 14 14 14 14 13 14 15 16 16 15 15 17 17 15 16 15 15 13 13 11 11 10 9 8 9 10 10 11
20 19 16 18 20 20 20 20 19 21 21 18 17 17 17 16 15 15 14 13 12 15 17 15 16 15 18 17 16 15 8 10 12 13 14 14 10 10 9 9 11 11 11
21 21 20 20 20 19 20 22 21 20 19 18 17 13 13 13 14 13 13 14 14 13 17 16 15 15 15 14 11 13 11 11 11 10 13 14 13 11 10 10 11 11 10
23 20 20 22 22 20 20 19 17 17 17 17 16 16 17 17 16 15 14 15 15 14 15 15 15 15 15 14 7 7 6 8 10 13 12 14 14 13 12 12 11 11 10
21 22 23 22 23 22 21 19 17 16 16 16 17 16 17 18 16 16 16 15 14 14 16 13 16 16 12 12 16 11 11 10 14 14 16 15 17 16 13 11 10 11 4
24 25 23 26 24 23 20 15 15 15 14 16 16 16 16 16 15 15 15 14 14 14 13 13 14 14 11 10 16 15 12 14 15 11 15 15 16 12 8 9 9 8 3
25 22 23 19 17 19 15 17 16 14 15 15 15 16 15 15 14 15 15 14 14 13 12 13 13 13 15 12 14 14 10 10 12 10 12 9 11 10 11 14 14 19 11
22 20 20 18 17 15 16 15 15 15 15 15 15 15 15 14 14 15 13 14 11 12 11 12 12 13 12 13 11 10 12 10 11 14 11 11 13 8 10 12 9 14 14
19 20 16 19 17 15 16 15 16 15 15 15 15 14 14 14 14 13 14 11 10 9 11 12 13 12 13 14 16 14 12 14 14 12 13 15 16 11 10 11 8 12 10
21 15 19 16 14 15 14 14 15 15 15 14 14 14 14 13 14 13 11 9 8 11 9 11 11 14 13 11 11 13 9 11 9 13 14 13 12 8 8 7 9 6 10
19 19 16 14 14 14 14 15 15 15 15 15 13 13 12 13 12 10 8 9 10 10 10 10 10 11 9 8 8 12 12 10 9 8 8 8 13 14 11 10 7 12 14
19 18 13 14 14 14 14 14 15 15 15 14 13 12 10 8 7 9 9 9 9 10 9 9 8 8 10 13 13 14 16 14 8 8 7 7 8 13 14 7 17 21 19
17 13 13 15 14 14 13 14 15 15 15 13 9 8 8 8 8 8 6 7 7 6 6 5 6 7 6 6 7 11 17 19 12 8 8 9 12 12 11 22 24 19 13
15 13 15 14 14 14 15 13 14 14 14 11 9 9 8 9 6 3 3 5 5 5 5 4 4 4 2 0 2 1 3 13 12 6 6 7 10 12 19 18 12 11 12
14 13 13 12 14 14 15 14 13 13 13 8 8 8 7 7 7 5 3 3 4 5 5 3 4 4 1 2 3 3 4 7 9 11 8 9 10 13 11 10 11 10 11
13 11 13 13 13 14 15 15 12 13 13 8 6 7 6 6 6 6 6 4 2 8 6 6 3 2 3 7 11 14 13 8 6 9 10 11 12 11 11 12 12 11 15
Wind_Direction
54 52 51 48 58 51 38 6 19 355 307 265 260 194 233 176 227 233 202 313 3 346 327 318 332 312 303 339 306 310 303 306 300 310 296 281 272 245 252 272 279 277 276
60 61 57 48 49 41 26 38 19 21 342 342 347 344 333 315 336 334 8 290 295 315 305 327 316 304 299 281 272 299 302 304 295 306 303 288 283 258 225 237 260 242 291
26 32 51 46 36 50 37 42 20 17 1 351 322 317 287 247 259 301 318 249 300 312 302 294 285 294 282 284 248 271 285 291 301 274 284 294 296 342 298 109 198 302 293
18 21 357 17 13 13 46 42 20 3 2 345 322 302 297 291 308 312 307 312 293 273 271 269 275 264 272 296 285 253 267 267 285 285 266 263 286 293 305 315 328 96 164
350 352 354 349 334 340 346 340 339 327 322 317 304 310 302 304 296 305 304 299 295 271 258 253 246 261 260 257 272 279 253 292 266 279 295 295 286 242 251 286 301 265 134
316 328 320 322 316 327 316 323 324 318 320 309 299 289 279 280 288 293 299 285 273 277 279 287 254 242 251 255 264 235 243 255 300 295 294 272 278 290 292 282 279 287 286
293 331 333 322 315 311 319 322 312 309 307 302 307 301 293 288 278 276 279 297 289 278 275 290 299 262 254 256 259 242 238 232 241 240 273 287 275 295 293 289 284 277 285
331 316 303 302 315 323 322 314 305 304 305 305 302 302 298 289 287 276 277 293 301 298 299 297 289 279 266 251 250 259 237 235 224 230 249 276 275 278 283 285 290 284 274
300 302 317 325 329 316 309 309 304 296 305 308 302 291 286 284 285 287 280 273 287 291 287 291 283 286 280 256 241 240 236 243 233 231 233 250 261 272 285 289 281 278 284
325 315 319 315 301 305 303 301 304 304 303 299 296 300 304 295 317 331 317 308 304 301 294 288 282 273 274 271 251 239 230 235 230 235 235 240 260 266 271 284 276 264 262
312 307 315 305 305 320 319 315 314 310 304 302 302 297 303 309 299 292 289 289 294 288 281 283 285 288 278 269 251 242 232 232 228 233 240 244 252 260 271 285 279 264 260
296 306 314 322 328 320 313 315 316 311 308 311 318 323 314 301 294 291 286 283 278 285 282 277 270 278 274 270 261 239 231 256 240 236 243 245 249 255 258 261 263 273 287
318 325 324 325 317 322 326 330 332 330 323 316 313 310 298 294 291 294 289 282 274 270 280 284 278 269 271 281 295 253 232 235 242 237 252 247 247 254 263 272 274 258 237
318 321 332 326 324 336 335 325 324 309 313 319 308 302 295 292 296 288 286 284 281 278 278 277 275 271 270 261 254 289 278 269 273 254 244 260 251 253 259 261 253 255 269
328 336 328 333 337 325 327 324 324 323 324 308 299 295 296 296 287 289 286 281 278 277 274 287 291 278 271 272 253 223 249 248 248 253 258 240 245 254 263 266 246 260 251
329 327 342 331 324 330 325 321 317 312 301 293 289 290 286 283 282 282 280 281 279 273 272 272 274 276 267 251 268 285 256 253 251 260 254 248 247 224 228 259 272 288 300
326 340 332 322 333 330 329 328 310 300 292 287 287 285 284 281 280 278 276 273 271 272 265 262 261 266 274 256 237 238 248 250 257 236 254 261 257 221 246 241 234 257 189
335 338 328 328 329 335 323 307 302 298 293 288 285 283 282 277 276 275 272 272 268 265 263 261 256 257 258 239 248 229 250 243 242 251 256 261 261 250 239 232 212 224 227
344 334 331 328 340 322 308 305 303 302 297 292 289 286 286 283 280 278 275 269 269 267 264 261 258 255 255 230 230 225 234 234 236 241 243 246 246 237 225 242 255 248 206
340 334 334 341 324 312 310 307 304 301 297 296 293 290 287 281 281 278 279 277 264 266 262 267 269 256 257 253 227 215 230 239 240 239 229 221 231 221 201 221 250 173 133
332 343 339 331 318 312 310 304 303 301 301 297 290 290 285 281 275 278 278 277 276 276 272 264 275 281 276 266 212 214 235 230 225 228 233 215 207 216 215 211 228 139 125
341 342 341 321 316 311 312 311 310 311 307 300 295 292 294 308 311 300 296 291 283 273 272 269 266 257 251 244 243 227 216 240 242 231 243 249 224 198 201 185 128 125 122
346 337 325 315 316 317 320 314 315 316 314 310 311 315 312 298 296 289 303 308 298 284 264 257 264 267 255 243 219 238 218 213 216 216 223 234 221 193 142 139 131 128 127
328 338 320 316 317 319 319 317 317 319 318 326 330 323 322 321 324 318 308 318 312 317 303 292 286 292 290 226 212 248 135 201 191 167 162 161 143 123 125 130 127 128 136
322 326 318 316 317 320 319 324 322 324 322 328 324 326 321 323 328 335 306 334 335 294 308 325 310 318 55 22 0 38 115 122 128 127 123 118 115 118 129 124 116 121 131
320 322 319 318 322 320 323 328 333 330 323 311 318 328 325 357 347 339 344 199 242 360 326 316 291 75 24 88 79 69 62 68 136 111 115 117 121 123 124 122 124 126 130